When you browse on this site, cookies collect data to enhance your experience and personalize the content and advertising you see.
Visit our Privacy Policy to learn more. By continuing to use the site, you agree to this use of cookies and data.
  • In Austria
  • List of Countries
  • For 7 days
  • Water Temperature
  • Satellite Maps
  • Weather Map
  • News
  • Weather Widgets
  • user-avatar
    Login

    Hourly Weather Poreba

    Today, 21 May, Tuesday

    Time Temperature Precipitation Wind Pressure Humidity
    00:00 +15°C° 0 mm 2 mps 750 mmHg 84%
    01:00 +15°C° 0 mm 2 mps 750 mmHg 86%
    02:00 +14°C° 0 mm 2 mps 750 mmHg 87%
    03:00 +14°C° 0 mm 2 mps 750 mmHg 89%
    04:00 +13°C° 0 mm 2 mps 750 mmHg 90%
    05:00 +15°C° 0 mm 2 mps 750 mmHg 83%
    06:00 +17°C° 0 mm 2 mps 750 mmHg 76%
    07:00 +18°C° 0 mm 2 mps 750 mmHg 69%
    08:00 +20°C° 0 mm 2 mps 750 mmHg 63%
    09:00 +22°C° 0 mm 3 mps 751 mmHg 56%
    10:00 +24°C° 0 mm 3 mps 751 mmHg 50%
    11:00 +25°C° 0 mm 3 mps 750 mmHg 50%
    12:00 +25°C° 0 mm 3 mps 750 mmHg 49%
    13:00 +25°C° 0 mm 2 mps 750 mmHg 49%
    14:00 +25°C° 0.1 mm 2 mps 750 mmHg 49%
    15:00 +26°C° 0.1 mm 1 mps 750 mmHg 49%
    16:00 +24°C° 0.1 mm 0 mps 750 mmHg 49%
    17:00 +24°C° 0.5 mm 1 mps 750 mmHg 59%
    18:00 +21°C° 0.5 mm 2 mps 750 mmHg 68%
    19:00 +20°C° 0.5 mm 3 mps 750 mmHg 78%
    20:00 +19°C° 0 mm 3 mps 750 mmHg 83%
    21:00 +18°C° 0 mm 3 mps 750 mmHg 87%
    22:00 +17°C° 0 mm 3 mps 750 mmHg 91%
    23:00 +16°C° 0.3 mm 3 mps 750 mmHg 92%

    Tomorrow, 22 May, Wednesday

    Time Temperature Precipitation Wind Pressure Humidity
    00:00 +16°C° 0.3 mm 3 mps 750 mmHg 92%
    01:00 +16°C° 0.3 mm 3 mps 750 mmHg 93%
    02:00 +14°C° 0.7 mm 3 mps 751 mmHg 93%
    03:00 +14°C° 0.7 mm 3 mps 751 mmHg 94%
    04:00 +14°C° 0.7 mm 3 mps 751 mmHg 94%
    05:00 +14°C° 0.7 mm 4 mps 751 mmHg 93%
    06:00 +14°C° 0.7 mm 4 mps 752 mmHg 93%
    07:00 +15°C° 0.7 mm 4 mps 752 mmHg 92%
    08:00 +15°C° 0.2 mm 5 mps 752 mmHg 91%
    09:00 +16°C° 0.2 mm 5 mps 752 mmHg 90%
    10:00 +16°C° 0.2 mm 5 mps 753 mmHg 89%
    11:00 +17°C° 0.2 mm 5 mps 753 mmHg 87%
    12:00 +17°C° 0.2 mm 5 mps 753 mmHg 85%
    13:00 +19°C° 0.2 mm 6 mps 753 mmHg 82%
    14:00 +19°C° 0.4 mm 6 mps 753 mmHg 83%
    15:00 +17°C° 0.4 mm 6 mps 754 mmHg 83%
    16:00 +17°C° 0.4 mm 6 mps 754 mmHg 84%
    17:00 +16°C° 0 mm 6 mps 754 mmHg 85%
    18:00 +16°C° 0 mm 6 mps 755 mmHg 86%
    19:00 +15°C° 0 mm 6 mps 755 mmHg 87%
    20:00 +15°C° 0 mm 5 mps 755 mmHg 87%
    21:00 +14°C° 0 mm 5 mps 756 mmHg 87%
    22:00 +14°C° 0 mm 5 mps 756 mmHg 88%
    23:00 +13°C° 0 mm 5 mps 757 mmHg 88%

    Day after tomorrow, 23 May, Thursday

    Time Temperature Precipitation Wind Pressure Humidity
    00:00 +13°C° 0 mm 6 mps 757 mmHg 88%
    01:00 +13°C° 0 mm 6 mps 757 mmHg 87%
    02:00 +11°C° 0.1 mm 6 mps 758 mmHg 87%
    03:00 +10°C° 0.1 mm 6 mps 758 mmHg 87%
    04:00 +10°C° 0.1 mm 6 mps 758 mmHg 87%
    05:00 +10°C° 0 mm 5 mps 759 mmHg 86%
    06:00 +9°C° 0 mm 5 mps 759 mmHg 85%
    07:00 +9°C° 0 mm 5 mps 759 mmHg 84%
    08:00 +10°C° 0 mm 5 mps 760 mmHg 78%
    09:00 +12°C° 0 mm 4 mps 760 mmHg 71%
    10:00 +13°C° 0 mm 4 mps 760 mmHg 64%
    11:00 +15°C° 0 mm 5 mps 760 mmHg 57%
    12:00 +16°C° 0 mm 5 mps 760 mmHg 51%
    13:00 +19°C° 0 mm 5 mps 760 mmHg 44%
    14:00 +19°C° 0 mm 5 mps 760 mmHg 45%
    15:00 +19°C° 0 mm 5 mps 760 mmHg 45%
    16:00 +19°C° 0 mm 4 mps 759 mmHg 46%
    17:00 +18°C° 0 mm 4 mps 759 mmHg 52%
    18:00 +17°C° 0 mm 3 mps 759 mmHg 58%
    19:00 +16°C° 0 mm 2 mps 759 mmHg 63%
    20:00 +14°C° 0 mm 2 mps 760 mmHg 69%
    21:00 +12°C° 0 mm 1 mps 760 mmHg 75%
    22:00 +11°C° 0 mm 1 mps 760 mmHg 80%
    23:00 +11°C° 0 mm 1 mps 760 mmHg 80%

    24 May, Friday

    Time Temperature Precipitation Wind Pressure Humidity
    00:00 +10°C° 0 mm 1 mps 760 mmHg 79%
    01:00 +10°C° 0 mm 1 mps 760 mmHg 79%
    02:00 +10°C° 0 mm 1 mps 759 mmHg 79%
    03:00 +10°C° 0 mm 1 mps 759 mmHg 79%
    04:00 +10°C° 0 mm 1 mps 759 mmHg 79%
    05:00 +12°C° 0 mm 2 mps 759 mmHg 74%
    06:00 +14°C° 0 mm 2 mps 759 mmHg 68%
    07:00 +15°C° 0 mm 2 mps 758 mmHg 63%
    08:00 +17°C° 0 mm 2 mps 758 mmHg 57%
    09:00 +19°C° 0 mm 3 mps 758 mmHg 52%
    10:00 +20°C° 0 mm 3 mps 758 mmHg 46%
    11:00 +21°C° 0 mm 3 mps 757 mmHg 45%
    12:00 +21°C° 0 mm 3 mps 757 mmHg 45%
    13:00 +21°C° 0 mm 3 mps 756 mmHg 45%
    14:00 +22°C° 0 mm 3 mps 756 mmHg 45%
    15:00 +22°C° 0 mm 3 mps 755 mmHg 44%
    16:00 +22°C° 0 mm 3 mps 755 mmHg 43%
    17:00 +21°C° 0 mm 3 mps 755 mmHg 49%
    18:00 +20°C° 0 mm 2 mps 754 mmHg 55%
    19:00 +20°C° 0 mm 1 mps 754 mmHg 61%
    20:00 +18°C° 0 mm 2 mps 754 mmHg 64%
    21:00 +16°C° 0 mm 2 mps 754 mmHg 67%
    22:00 +15°C° 0 mm 2 mps 754 mmHg 70%
    23:00 +15°C° 0 mm 2 mps 754 mmHg 73%

    25 May, Saturday

    Time Temperature Precipitation Wind Pressure Humidity
    00:00 +14°C° 0 mm 2 mps 754 mmHg 77%
    01:00 +13°C° 0 mm 2 mps 754 mmHg 80%
    02:00 +13°C° 0 mm 2 mps 754 mmHg 82%
    03:00 +13°C° 0 mm 2 mps 753 mmHg 83%
    04:00 +13°C° 0 mm 2 mps 753 mmHg 85%
    05:00 +13°C° 0 mm 3 mps 754 mmHg 81%
    06:00 +14°C° 0 mm 3 mps 754 mmHg 77%
    07:00 +17°C° 0 mm 3 mps 754 mmHg 73%
    08:00 +18°C° 0 mm 4 mps 754 mmHg 67%
    09:00 +19°C° 0 mm 4 mps 754 mmHg 61%
    10:00 +20°C° 0 mm 4 mps 754 mmHg 55%
    11:00 +21°C° 0.1 mm 5 mps 754 mmHg 54%
    12:00 +21°C° 0.1 mm 5 mps 754 mmHg 53%
    13:00 +21°C° 0.1 mm 5 mps 754 mmHg 52%
    14:00 +21°C° 0 mm 5 mps 754 mmHg 51%
    15:00 +21°C° 0 mm 5 mps 754 mmHg 51%
    16:00 +21°C° 0 mm 5 mps 754 mmHg 50%
    17:00 +19°C° 0 mm 5 mps 754 mmHg 55%
    18:00 +18°C° 0 mm 4 mps 754 mmHg 61%
    19:00 +15°C° 0 mm 4 mps 755 mmHg 66%
    20:00 +14°C° 0 mm 3 mps 755 mmHg 72%
    21:00 +13°C° 0 mm 2 mps 755 mmHg 78%
    22:00 +11°C° 0 mm 1 mps 755 mmHg 84%
    23:00 +11°C° 0 mm 1 mps 755 mmHg 84%

    26 May, Sunday

    Time Temperature Precipitation Wind Pressure Humidity
    00:00 +11°C° 0 mm 1 mps 755 mmHg 83%
    01:00 +11°C° 0 mm 1 mps 755 mmHg 83%
    02:00 +10°C° 0 mm 2 mps 755 mmHg 83%
    03:00 +10°C° 0 mm 2 mps 755 mmHg 83%
    04:00 +10°C° 0 mm 3 mps 755 mmHg 83%
    05:00 +12°C° 0 mm 4 mps 754 mmHg 81%
    06:00 +13°C° 0 mm 5 mps 754 mmHg 79%
    07:00 +15°C° 0 mm 5 mps 754 mmHg 77%
    08:00 +14°C° 0.1 mm 5 mps 754 mmHg 77%
    09:00 +13°C° 0.1 mm 5 mps 755 mmHg 77%
    10:00 +11°C° 0.1 mm 6 mps 755 mmHg 77%
    11:00 +12°C° 0 mm 5 mps 755 mmHg 72%
    12:00 +13°C° 0 mm 5 mps 755 mmHg 68%
    13:00 +13°C° 0 mm 5 mps 755 mmHg 64%
    14:00 +14°C° 0 mm 5 mps 755 mmHg 62%
    15:00 +14°C° 0 mm 6 mps 755 mmHg 61%
    16:00 +15°C° 0 mm 6 mps 755 mmHg 59%
    17:00 +14°C° 0 mm 5 mps 755 mmHg 62%
    18:00 +14°C° 0 mm 4 mps 755 mmHg 64%
    19:00 +13°C° 0 mm 3 mps 755 mmHg 66%
    20:00 +12°C° 0 mm 3 mps 756 mmHg 72%
    21:00 +12°C° 0 mm 2 mps 756 mmHg 77%
    22:00 +9°C° 0 mm 2 mps 756 mmHg 83%
    23:00 +10°C° 0 mm 2 mps 755 mmHg 82%
    Show more